Regional Weather Roundup
Issued by NWS

Home | Current Version | Previous Version | Text Only | Print | Product List | Glossary On
Versions: 1 2 3 4 5 6 7 8 9 10 11 12 13 14 15 16 17 18 19 20 21 22 23 24 25 26 27 28 29 30 31 32 33 34 35 36 37 38 39 40 41 42 43 44 45 46 47 48 49 50
000
ASUS45 KBOU 220707
RWRCO

WEATHER ROUNDUP FOR COLORADO
NATIONAL WEATHER SERVICE DENVER/BOULDER CO
1200 AM MST MON DEC 22 2014

NOTE: "FAIR" INDICATES FEW OR NO CLOUDS BELOW 12000 FEET WITH NO
SIGNIFICANT WEATHER AND/OR OBSTRUCTIONS TO VISIBILITY.

COZ001>005-013-030-031-220800-
...NORTHWEST COLORADO...

CITY           SKY/WX    TMP DP  RH WIND       PRES   REMARKS
CRAIG          FLURRIES  36  28  73 NW23G32   29.83F
HAYDEN         CLOUDY    32  25  74 NW15G30   29.81S WCI  22
MEEKER         CLOUDY    36  32  85 CALM      29.85F
MOUNT WERNER   NOT AVBL
STEAMBOAT SPGS CLOUDY    33  21  61 W17       29.78F WCI  22
WALDEN         CLOUDY    25  19  80 NW14      29.72F WCI  13
$$

COZ006>008-011-220800-
...WEST CENTRAL VALLEYS...

CITY           SKY/WX    TMP DP  RH WIND       PRES   REMARKS
GRAND JUNCTION CLOUDY    32  32 100 SE8       29.90S WCI  25
MONTROSE       FOG       30  30 100 E3        29.91F VSB 1
EAGLE          CLOUDY    34  32  93 E6        29.82F WCI  29
RIFLE          CLOUDY    35  32  88 W18       29.82F WCI  24
DELTA          CLOUDY    35  33  93 CALM      29.89F
NUCLA          CLOUDY    34  32  93 E5        29.98F WCI  30
$$

COZ017>023-064>068-220800-
...SOUTHWEST COLORADO...

CITY           SKY/WX    TMP DP  RH WIND       PRES   REMARKS
DURANGO        MOCLDY    37  29  72 W21       29.87F
CORTEZ         CLEAR     31  28  89 NE9       29.98R WCI  23
PAGOSA SPRINGS LGT SNOW  31  31 100 CALM      29.88F
TELLURIDE      CLOUDY    33  31  94 W20G35    29.97F WCI  21
WOLF CREEK PAS SNOW      18  18 100 MISG      29.87F VSB 1/2
$$

COZ009-010-012-014-032>034-037-058>063-220800-
...CENTRAL COLORADO...

CITY           SKY/WX    TMP DP  RH WIND       PRES   REMARKS
ASPEN          FLURRIES  30  28  92 N10       29.79S WCI  21
BUENA VISTA    LGT SNOW  32  31  96 CALM      29.72S VSB 1
COPPER MTN     CLOUDY    23  18  80 W33G52    29.73S WCI   5
BERTHOUD PASS  HVY SNOW  12   5  73 MISG      29.60F VSB<1/4
COTTONWOOD PAS LGT SNOW  32  28  86 NW10G23   29.73S WCI  24
GUNNISON       CLOUDY    36  28  75 W16       29.80F
KREMMLING      LGT SNOW  30  27  86 NW13G23   29.80S VSB 3/4 WCI  20
LEADVILLE      SNOW      24  22  91 NW16G28   29.73R VSB 1/2 WCI  11
SALIDA         CLOUDY    34  33  96 MISG      29.80R
SUNLIGHT       CLOUDY   N/A N/A N/A SW7G31    29.84S
WILKERSON PASS LGT SNOW  21  19  93 N15G28    29.74S WCI   8
$$

COZ069>075-220800-
...SAN LUIS VALLEY/SANGRE DE CRISTO MOUNTAINS...

CITY           SKY/WX    TMP DP  RH WIND       PRES   REMARKS
ALAMOSA        PTCLDY    27  21  78 SW5       29.75S WCI  22
LA VETA PASS   LGT SNOW  27  23  86 SW12G18   29.73F WCI  16
SAGUACHE       FLURRIES  34  32  93 NW17G24   29.74R WCI  23
$$

COZ035-036-038>040-220800-
...NORTHERN COLORADO FRONT RANGE...

CITY           SKY/WX    TMP DP  RH WIND       PRES   REMARKS
DENVER INTL AP CLOUDY    34  30  85 NW13      29.67S WCI  25
DMNS CITY PARK   N/A     34  32  92 SW5       29.71R WCI  30
AURORA         CLOUDY    32  32  99 VRB1      29.70S
FRONT RANGE AP CLOUDY    36  32  87 N10       29.68S
ERIE MUNI ARPT   N/A     35  32  90 SW3       29.70R
BOULDER MUN AP CLOUDY    36  32  87 SE6       29.69R
CENTENNIAL     LGT SNOW  32  31  96 SW6       29.70F FOG     WCI  26
BROOMFIELD     LGT SNOW  34  32  93 SW8       29.72R WCI  27
FORT COLLINS   MOCLDY    37  25  60 NW14      29.69S
LONGMONT       CLOUDY    40  31  70 N7        29.71R
$$

COZ041-046-047-076>085-087-088-220800-
...PIKES PEAK/PALMER DIVIDE AND SOUTHERN FOOTHILLS...

CITY           SKY/WX    TMP DP  RH WIND       PRES   REMARKS
COLO. SPRINGS  LGT SNOW  35  32  88 N20G32    29.71R FOG     WCI  24
A. F. ACADEMY  FLURRIES  32  32 100 N16G24    29.70R WCI  21
ELLICOTT       NOT AVBL
FALCON         LGT SNOW  31  29  94 N16G22    29.70R WCI  20
FORT CARSON    LGT RAIN  37  34  88 N12       29.68R
LIMON          CLOUDY    32  30  92 NW17      29.67F WCI  21
MONUMENT HILL  LGT SNOW  28  28 100 N12G18    29.69F VSB 1   WCI  18
TRINIDAD       LGT RAIN  45  32  60 N24G32    29.66R
$$

COZ042>045-048>051-090-091-220800-
...NORTHEAST COLORADO...

CITY           SKY/WX    TMP DP  RH WIND       PRES   REMARKS
GREELEY ARPT   MOCLDY    39  23  52 NW20      29.66R
AKRON          CLOUDY    35  30  82 NE17      29.59F WCI  25
BURLINGTON     MOCLDY    38  33  82 NW24G32   29.61R
WRAY           CLOUDY    38  33  84 W14       29.59F
STERLING       MOCLDY    37  34  87 N9        29.60S
HOLYOKE        CLOUDY    41  32  70 NW15G22   29.58S
FORT MORGAN    MOCLDY    32  29  90 W8        29.66R WCI  25
$$

COZ086-089-092>099-220800-
...SOUTHEAST COLORADO...

CITY           SKY/WX    TMP DP  RH WIND       PRES   REMARKS
PUEBLO         CLOUDY    39  27  62 CALM      29.67R
LA JUNTA       CLOUDY    41  36  82 N13       29.67R
LAMAR          CLOUDY    43  37  79 NW13      29.60S
SPRINGFIELD      N/A     40  33  76 N14       29.64R
$$


USA.gov is the U.S. government's official web portal to all federal, state and local government web resources and services.